Weather History for Wildwood, NJ

Change the Weather History Date:

Monday, November 19, 2012

  Actual Average Record
Temperature  
Mean Temperature 50 °F -  
Max Temperature 55 °F 52 °F 64 °F (2003)
Min Temperature 46 °F 38 °F 24 °F (1997)
Degree Days  
Heating Degree Days 14    
Moisture  
Dew Point 42 °F    
Average Humidity 77    
Maximum Humidity 87    
Minimum Humidity 67    
Precipitation  
Precipitation 0.00 in - - ()
Sea Level Pressure  
Sea Level Pressure 30.30 in    
Wind  
Wind Speed 12 mph (NNE)    
Max Wind Speed 20 mph    
Max Gust Speed 25 mph    
Visibility 10 miles    
Events      
Averages and records for this station are not official NWS values.
T = Trace of Precipitation, MM = Missing Value Source: NWS Daily Summary

Daily Weather History Graph

Daily Weather History Graph

Search for Another Location

Airport:

Trip Planner

Search our weather history database for the weather conditions in past years. The results will help you decide how hot, cold, wet, or windy it might be!

Date:

Astronomy

Nov. 19, 2012 Rise Set
Actual Time 6:47 AM EST 4:42 PM EST
Civil Twilight 6:18 AM EST 5:11 PM EST
Nautical Twilight 5:46 AM EST 5:43 PM EST
Astronomical Twilight 5:14 AM EST 6:15 PM EST
Moon 11:50 AM EST (11/19) 11:05 PM EST (11/19)
Length of Visible Light 10h 52m
Length of Day
9h 55m
Waxing Crescent, 40% of the Moon is Illuminated
Nov 19
Waxing Crescent
Nov 20
First Quarter
Nov 28
Full
Dec 6
Last Quarter
Dec 13
New

Hourly Weather History & Observations

Time (EST) Temp. Windchill Dew Point Humidity Pressure Visibility Wind Dir Wind Speed Gust Speed Precip Events Conditions
12:15 AM 46.4 °F 41.5 °F 39.2 °F 76% 30.44 in 10.0 mi NNE 10.4 mph - N/A   Clear
12:35 AM 46.4 °F 41.5 °F 39.2 °F 76% 30.43 in 10.0 mi NNE 10.4 mph - N/A   Clear
12:55 AM 46.4 °F 40.4 °F 39.2 °F 76% 30.41 in 10.0 mi NE 13.8 mph - N/A   Clear
1:15 AM 46.4 °F 40.7 °F 39.2 °F 76% 30.41 in 10.0 mi NNE 12.7 mph - N/A   Clear
1:35 AM 48.2 °F - 41.0 °F 76% 30.41 in 10.0 mi NNE 10.4 mph - N/A   Clear
1:55 AM 48.2 °F - 41.0 °F 76% 30.40 in 10.0 mi NNE 10.4 mph - N/A   Clear
2:15 AM 48.2 °F - 41.0 °F 76% 30.40 in 10.0 mi NNE 11.5 mph - N/A   Scattered Clouds
2:35 AM 46.4 °F 41.9 °F 41.0 °F 81% 30.40 in 10.0 mi NNE 9.2 mph - N/A   Mostly Cloudy
2:55 AM 46.4 °F 41.5 °F 39.2 °F 76% 30.39 in 10.0 mi NNE 10.4 mph - N/A   Mostly Cloudy
3:15 AM 46.4 °F 42.4 °F 41.0 °F 81% 30.38 in 10.0 mi NNE 8.1 mph - N/A   Scattered Clouds
3:35 AM 46.4 °F 41.1 °F 41.0 °F 81% 30.37 in 10.0 mi North 11.5 mph - N/A   Mostly Cloudy
3:55 AM 46.4 °F 41.5 °F 41.0 °F 81% 30.38 in 10.0 mi NNE 10.4 mph - N/A   Partly Cloudy
4:15 AM 46.4 °F 41.1 °F 41.0 °F 81% 30.37 in 10.0 mi NNE 11.5 mph 17.3 mph N/A   Clear
4:35 AM 46.4 °F 40.7 °F 41.0 °F 81% 30.37 in 10.0 mi NNE 12.7 mph - N/A   Clear
4:55 AM 46.4 °F 40.4 °F 41.0 °F 81% 30.37 in 10.0 mi NNE 13.8 mph - N/A   Clear
5:15 AM 46.4 °F 41.1 °F 42.8 °F 87% 30.37 in 10.0 mi NNE 11.5 mph 16.1 mph N/A   Clear
5:35 AM 46.4 °F 41.1 °F 41.0 °F 81% 30.37 in 10.0 mi NNE 11.5 mph - N/A   Scattered Clouds
5:55 AM 46.4 °F 40.7 °F 41.0 °F 81% 30.37 in 10.0 mi NNE 12.7 mph 17.3 mph N/A   Overcast
6:15 AM 46.4 °F 41.1 °F 41.0 °F 81% 30.37 in 10.0 mi NNE 11.5 mph - N/A   Overcast
6:35 AM 46.4 °F 41.1 °F 41.0 °F 81% 30.37 in 10.0 mi NNE 11.5 mph 16.1 mph N/A   Overcast
6:55 AM 46.4 °F 40.4 °F 42.8 °F 87% 30.38 in 10.0 mi NE 13.8 mph - N/A   Overcast
7:15 AM 48.2 °F - 42.8 °F 82% 30.37 in 10.0 mi NNE 15.0 mph 20.7 mph N/A   Overcast
7:35 AM 48.2 °F - 42.8 °F 82% 30.37 in 10.0 mi NNE 11.5 mph 19.6 mph N/A   Overcast
7:55 AM 48.2 °F - 42.8 °F 82% 30.37 in 10.0 mi NNE 11.5 mph - N/A   Overcast
8:35 AM 50.0 °F - 44.6 °F 82% 30.36 in 10.0 mi NE 15.0 mph 20.7 mph N/A   Overcast
8:55 AM 51.8 °F - 42.8 °F 71% 30.35 in 10.0 mi NE 16.1 mph 25.3 mph N/A   Overcast
9:15 AM 51.8 °F - 44.6 °F 76% 30.35 in 10.0 mi NE 15.0 mph - N/A   Overcast
9:35 AM 51.8 °F - 44.6 °F 76% 30.35 in 10.0 mi NE 13.8 mph 21.9 mph N/A   Overcast
9:55 AM 51.8 °F - 44.6 °F 76% 30.35 in 10.0 mi NNE 11.5 mph - N/A   Mostly Cloudy
10:15 AM 51.8 °F - 44.6 °F 76% 30.34 in 10.0 mi NE 12.7 mph 18.4 mph N/A   Overcast
10:35 AM 53.6 °F - 44.6 °F 72% 30.33 in 10.0 mi NE 12.7 mph 21.9 mph N/A   Overcast
10:55 AM 53.6 °F - 44.6 °F 72% 30.32 in 10.0 mi NNE 10.4 mph 25.3 mph N/A   Overcast
11:15 AM - - - N/A% 30.30 in 10.0 mi NNE 18.4 mph 24.2 mph N/A   Overcast
11:35 AM 53.6 °F - 44.6 °F 72% 30.30 in 10.0 mi NE 19.6 mph 25.3 mph N/A   Overcast
11:55 AM 53.6 °F - 44.6 °F 72% 30.29 in 10.0 mi NE 16.1 mph 24.2 mph N/A   Overcast
12:15 PM 53.6 °F - 44.6 °F 72% 30.29 in 10.0 mi NNE 13.8 mph 19.6 mph N/A   Overcast
12:35 PM 53.6 °F - 44.6 °F 72% - 10.0 mi NNE 16.1 mph 20.7 mph N/A   Overcast
12:55 PM - - - N/A% 30.27 in 10.0 mi NE 13.8 mph 21.9 mph N/A   Overcast
1:15 PM 53.6 °F - 44.6 °F 72% 30.27 in 10.0 mi NE 15.0 mph - N/A   Overcast
1:35 PM 53.6 °F - 44.6 °F 72% 30.26 in 10.0 mi NNE 13.8 mph 19.6 mph N/A   Overcast
1:55 PM 55.4 °F - 44.6 °F 67% 30.25 in 10.0 mi NNE 17.3 mph 20.7 mph N/A   Mostly Cloudy
2:15 PM 55.4 °F - 44.6 °F 67% 30.24 in 10.0 mi NNE 13.8 mph 17.3 mph N/A   Mostly Cloudy
2:35 PM 53.6 °F - 44.6 °F 72% - 10.0 mi ENE 6.9 mph - N/A   Overcast
2:55 PM 53.6 °F - 44.6 °F 72% 30.24 in 10.0 mi NE 6.9 mph - N/A   Overcast
3:15 PM 53.6 °F - 44.6 °F 72% 30.25 in 10.0 mi NNE 9.2 mph - N/A   Overcast
3:35 PM 53.6 °F - 44.6 °F 72% - 10.0 mi NE 9.2 mph - N/A   Overcast
3:55 PM 51.8 °F - 42.8 °F 71% 30.25 in 10.0 mi NNE 12.7 mph - N/A   Overcast
4:15 PM 51.8 °F - 42.8 °F 71% 30.24 in 10.0 mi NNE 10.4 mph - N/A   Overcast
4:35 PM 51.8 °F - 42.8 °F 71% 30.24 in 10.0 mi NNE 13.8 mph - N/A   Overcast
4:55 PM 51.8 °F - 42.8 °F 71% 30.24 in 10.0 mi NNE 9.2 mph - N/A   Overcast
5:15 PM 51.8 °F - 42.8 °F 71% 30.24 in 10.0 mi NNE 11.5 mph - N/A   Overcast
5:35 PM 50.0 °F - 42.8 °F 76% 30.24 in 10.0 mi North 11.5 mph - N/A   Overcast
5:55 PM 50.0 °F - 41.0 °F 71% 30.24 in 10.0 mi NNE 11.5 mph 18.4 mph N/A   Overcast
6:15 PM 50.0 °F - 42.8 °F 76% 30.24 in 10.0 mi NNE 11.5 mph - N/A   Overcast
6:35 PM 48.2 °F - 42.8 °F 82% 30.24 in 10.0 mi NNE 10.4 mph - N/A   Overcast
6:55 PM 48.2 °F - 41.0 °F 76% 30.23 in 10.0 mi NNE 11.5 mph - N/A   Overcast
7:15 PM 48.2 °F - 41.0 °F 76% 30.23 in 10.0 mi NNE 13.8 mph 17.3 mph N/A   Overcast
7:35 PM 48.2 °F - 42.8 °F 82% 30.23 in 10.0 mi NNE 12.7 mph - N/A   Overcast
7:55 PM 48.2 °F - 41.0 °F 76% 30.22 in 10.0 mi NNE 11.5 mph 17.3 mph N/A   Overcast
8:15 PM 48.2 °F - 41.0 °F 76% 30.22 in 10.0 mi NNE 10.4 mph - N/A   Overcast
8:35 PM 48.2 °F - 41.0 °F 76% 30.21 in 10.0 mi NNE 10.4 mph 18.4 mph N/A   Overcast
8:55 PM 48.2 °F - 41.0 °F 76% 30.20 in 10.0 mi NNE 13.8 mph - N/A   Overcast
9:15 PM 48.2 °F - 42.8 °F 82% 30.20 in 10.0 mi NNE 12.7 mph - N/A   Mostly Cloudy
9:35 PM 48.2 °F - 42.8 °F 82% 30.20 in 10.0 mi NNE 12.7 mph - N/A   Scattered Clouds
10:15 PM 48.2 °F - 42.8 °F 82% 30.20 in 10.0 mi NNE 10.4 mph - N/A   Mostly Cloudy
10:35 PM 48.2 °F - 42.8 °F 82% 30.19 in 10.0 mi NNE 12.7 mph 17.3 mph N/A   Overcast
10:55 PM 48.2 °F - 42.8 °F 82% 30.18 in 10.0 mi NNE 11.5 mph - N/A   Overcast
11:15 PM 46.4 °F 41.9 °F 42.8 °F 87% 30.18 in 10.0 mi NE 9.2 mph - N/A   Overcast
11:35 PM 48.2 °F - 42.8 °F 82% 30.18 in 10.0 mi NE 11.5 mph - N/A   Overcast
11:55 PM 48.2 °F - 42.8 °F 82% 30.17 in 10.0 mi NE 13.8 mph - N/A   Overcast